Regional Weather Roundup
Issued by NWS Charleston, SC

Current Version | Previous Version | Graphics & Text | Print | Product List | Glossary On
Versions: 1 2 3 4 5 6 7 8 9 10 11 12 13 14 15 16 17 18 19 20 21 22 23 24 25 26 27 28 29 30 31 32 33 34 35 36 37 38 39 40 41 42 43 44 45 46 47 48 49 50
000
ASUS42 KCHS 241728
RWRCHS

REGIONAL WEATHER ROUNDUP
NATIONAL WEATHER SERVICE CHARLESTON SC
100 PM EDT SUN JUL 24 2016

NOTE: "FAIR" INDICATES FEW OR NO CLOUDS BELOW 12,000 FEET WITH NO
SIGNIFICANT WEATHER AND/OR OBSTRUCTIONS TO VISIBILITY.

NOT ALL STATIONS ARE QUALITY CONTROLLED. USE DATA WITH CAUTION...
ESPECIALLY DEWPOINT OBSERVATIONS.

SCZ027-030-031-034>040-042>050-241800-
...SOUTHEAST SOUTH CAROLINA...

CITY           SKY/WX    TMP DP  RH WIND       PRES   REMARKS
N CHARLESTON   CLOUDY    92  75  57 W7        30.04F HX 103
WATERFRONT PRK   N/A     89  77  67 W5        30.03S HX 101
MOUNT PLEASANT FAIR      91  75  59 CALM      30.03F HX 102
JOHNS ISLAND   FAIR      93  79  62 S9        30.04F HX 110
PINOPOLIS        N/A     84  77  79 VRB3      29.98R HX  94
MONCKS CORNER  PTSUNNY   90  70  51 CALM      30.04S HX  95
SUMMERVILLE    FAIR      95  72  46 W5        30.05F HX 103
BEAUFORT MCAS  MOSUNNY   95  72  47 CALM      30.04F HX 103
BEAUFORT ARPT  FAIR      90  75  62 S5        30.04S HAZE    HX 100
HILTON HEAD IS MOSUNNY   97  77  52 S5        30.05S HX 112
WALTERBORO     MOSUNNY   95  70  43 NW5       30.05F HX 101
ALLENDALE      FAIR      95  72  46 NW3       30.04S HX 103

...SOUTHERN MIDLANDS AND PEE DEE...

CITY           SKY/WX    TMP DP  RH WIND       PRES   REMARKS
GEORGETOWN     FAIR      90  73  58 CALM      30.05F HX  98
KINGSTREE      FAIR      91  72  52 S5        30.04S HX  98
ORANGEBURG     SUNNY     93  72  50 W6        30.05S HX 101
BARNWELL       NOT AVBL
AIKEN          FAIR      91  70  49 S6        30.08F HX  97
MANNING        FAIR      91  72  52 W5        30.04F HX  98
COLUMBIA       PTSUNNY   96  70  42 VRB3      30.03F HX 102
SUMTER         MOSUNNY   92  73  53 SW6       30.02F HAZE    HX 101
FLORENCE       SUNNY     92  74  55 W8        30.04S HX 101
MYRTLE BEACH   MOSUNNY   90  72  55 S14       30.06S HX  96
N MYRTLE BEACH SUNNY     87  77  72 S13       30.04S HX  99

$$

GAZ063-065-086>088-099>101-113>116-118-119-134>141-150-241800-
...SOUTHEAST GEORGIA...

CITY           SKY/WX    TMP DP  RH WIND       PRES   REMARKS
SAVANNAH ARPT  MOSUNNY   92  70  48 W7        30.04F HX  97
HUNTER AAF     SUNNY     93  79  63 S6        30.01F HX 110
FORT STEWART   MOSUNNY   93  71  48 S5        30.01F HX  99
STATESBORO     SUNNY     93  74  53 CALM      30.04F HX 102
SYLVANIA       NOT AVBL
CLAXTON        FAIR      95  73  49 SW5       30.03F HX 104

...CSRA...CENTRAL AND FAR SOUTHEAST GEORGIA...

CITY           SKY/WX    TMP DP  RH WIND       PRES   REMARKS
THOMSON        MOSUNNY   96  73  48 W5        30.08F HX 105
AUGUSTA-BUSH   MOSUNNY   95  69  42 CALM      30.02F HX 100
AUGUSTA-DANIEL PTSUNNY   92  71  50 CALM      30.05F HX  98
SWAINSBORO     FAIR      93  68  43 W3        30.05F HX  97
VIDALIA        PTSUNNY   95  68  41 CALM      30.04F HX  99
EASTMAN        FAIR      93  60  33 NW5       30.06F HX  93
HAZLEHURST     FAIR      95  70  44 CALM      30.03F HX 102
ALMA           SUNNY     93  71  48 E5        30.04F HX 100
WAYCROSS       MOSUNNY   97  75  50 SW5       30.04F HX 109
JESUP          FAIR      95  77  55 S3        30.03F HX 109
BAXLEY         FAIR      91  73  55 W3        30.04F HX 100
BRUNSWICK      PTSUNNY   93  77  59 CALM      30.04F HX 107
SAINT SIMONS   SUNNY     91  72  53 CALM      30.04F HX  98

$$

SCZ027-028-034-036>038-045-046-048>050-GAZ119-141-241800-
...LAKE AND SUPPLEMENTAL COASTAL OBSERVATIONS...

STATION/POSITION TIME  TEMP    WIND        PRES    WAVE   SWELL
                       AIR SEA DIR/SP/G            HT/PER HT/PER/DIR
                 (UTC) (F)     (DEG/KT/KT) (MB)    (FT/S) (FT/S/D)
WINYAH BAY       1645   88     160/  6     1017.0S
LAKE MURRAY      1700   90     190/  5/  7 1016.6F
ACE BASIN NERRS  1600   90     240/  2     1018.0S
FORT PULASKI     1700   89 87  150/  5/  7 1017.7F
SAPELO ISLAND    1700   93     200/  3     1017.0F

$$

ANZ835-935-AMZ111-154-330-350-352-354-370-450-454-472-241800-
...C-MAN AND BUOY OBSERVATIONS...

STATION/POSITION TIME  TEMP    WIND        PRES    WAVE   SWELL
                       AIR SEA DIR/SP/G            HT/PER HT/PER/DIR
                 (UTC) (F)     (DEG/KT/KT) (MB)    (FT/S) (FT/S/D)
BUOY 41004       1650   85 86  210/ 10/ 10 1017.6R   3/ 9   2/130/ 9
BUOY 41008       1650   84 86  200/  8/ 10 1017.4F   2/ 9   2/ 90/ 9
FOLLY BEACH CMAN 1700   87     210/ 11/ 13 1017.9R
CAPERS NEARSHORE 1708   84 84  220/ 12/ 14 1017.5S
FRIPP NEARSHORE  1708   85 86  210/  8/ 12 1016.9F


STATION/POSITION TIME  TEMP    WIND        PRES    WAVE   SWELL
                       AIR SEA DIR/SP/G            HT/PER HT/PER/DIR
                 (UTC) (F)     (DEG/KT/KT) (MB)    (FT/S) (FT/S/D)
5E ST. MARYS GA  1701      88                N/A     2/ 9
FRYING PAN BUOY  1700   84 86  200/  8/ 10 1017.5S
BUOY 41025       1650   84 86  240/ 10/ 12 1017.5R   2/ 9   2/140/ 9
CAPE LOOKOUT NC  1700   88     230/  9/ 11 1017.2R
BUOY 41002       1650   83 87  130/  4/  6 1018.8F   2/ 8   2/100/ 8
BUOY 41010       1620   84 88   80/  2/  4 1019.1R
ST AUGUSTINE FL  1700   84 86  100/  8/  9 1018.9F


$$



USA.gov is the U.S. government's official web portal to all federal, state and local government web resources and services.